[[{"header":{"parameterUnit":"m.s-1","parameterCategory":1,"la1":30.2991,"la2":30.254,"lo1":-89.0895,"lo2":-89.0444,"dy":0.0017,"dx":0.0017,"nx":28,"ny":28,"refTime":"2023-07-20T21:00:00:Z","depth":0,"parameterNumber":2,"parameterNumberName":"U-component_of_WINDS"},"data":[0,0,0,0,0,0,0,0,0,0,0,0,0,0,0,0,0,0,0,0,0,0,0,0,0,0,0,0,0,0,0,0,0,0,0,0,0,0,0,0,0,0,0,0,0,0,0,0,0,0,0,0,0,0,0,0,0,0,2.2105,2.2107,0,2.2205,2.2206,2.2207,2.2191,2.2189,2.2187,2.2186,2.2294,2.2298,2.2303,0,0,0,0,0,0,0,0,0,0,0,0,0,2.1907,2.1911,2.2105,2.2107,2.2108,2.2205,2.2206,2.2208,2.2191,2.2189,2.2187,2.2185,2.2292,2.2298,2.2303,0,0,0,0,0,0,0,0,0,0,0,0,0,2.1999,2.1912,2.2105,2.2111,2.2113,2.2205,2.2206,2.2208,2.2191,2.2189,2.2186,2.2184,2.2291,2.2297,2.2304,2.2398,0,0,2.2324,2.2327,0,0,0,0,0,0,0,0,2.1994,2.2006,2.2109,2.2111,2.2113,2.2183,2.2176,2.2272,2.2192,2.2162,2.2185,2.2182,2.2259,2.2268,2.2293,2.2403,2.2408,2.2325,2.2329,2.2332,2.2334,0,0,0,0,0,0,0,2.1987,2.2002,2.2145,2.2111,2.2113,2.2111,2.2121,2.2194,2.2224,2.2164,2.2163,2.2175,2.226,2.2287,2.2296,2.2409,2.2325,2.2331,2.2335,2.2338,2.2604,2.2607,0,0,0,0,0,0,2.1978,2.1997,2.2142,2.2148,2.2045,2.2117,2.2128,2.2163,2.2223,2.223,2.2177,2.2174,2.2276,2.2288,2.2299,2.2415,2.2332,2.2338,2.2342,2.2601,2.2604,2.2608,0,0,0,0,0,0,2.1974,2.1991,2.2138,2.2072,2.209,2.2123,2.2162,2.2166,2.2193,2.2233,2.2239,2.2198,2.2275,2.229,2.2374,2.2418,2.2341,2.2348,2.2597,2.2602,2.2606,2.2646,0,0,0,0,0,0,2.1968,2.199,2.2025,2.2073,2.2094,2.2209,2.2165,2.217,2.2204,2.2201,2.2255,2.2261,2.2274,2.2364,2.238,2.2426,2.2353,2.2593,2.2599,2.2605,2.2641,2.2651,2.266,0,0,0,0,0,2.1961,2.2033,2.2026,2.2044,2.2138,2.2211,2.2223,2.2235,2.2207,2.2244,2.227,2.2259,2.241,2.2372,2.2391,2.244,2.2591,2.2598,2.2604,2.2636,2.2649,2.266,0,0,0,0,0,0,2.1991,2.2039,2.2033,2.2121,2.2162,2.2208,2.2254,2.2248,2.2299,2.2294,2.2308,2.232,2.2405,2.2431,2.2387,2.2535,2.2497,2.2508,2.2515,2.2528,2.2537,2.253,2.2358,0,0,0,0,0,2.2007,2.2061,2.2101,2.2176,2.2196,2.2222,2.2254,2.2259,2.2303,2.2321,2.2352,2.2397,2.2455,2.2492,2.2548,2.2644,2.2657,2.2687,2.2697,2.2704,2.2714,2.2769,2.2783,2.263,2.263,2.263,0,0,2.2043,2.2076,2.2109,2.2182,2.2214,2.2272,2.2236,2.2298,2.2342,2.2331,2.2411,2.2437,2.2487,2.2578,2.262,2.2602,2.2759,2.2713,2.2719,2.2725,2.2777,2.2792,2.2805,2.2634,2.2634,2.2633,0,0,2.2136,2.2166,2.2231,2.2264,2.2313,2.2329,2.2345,2.2392,2.2408,2.2489,2.2482,2.2535,2.2634,2.267,2.2702,2.2811,2.2804,2.2828,2.288,2.2933,2.2945,2.2956,2.2996,2.301,2.2838,2.2838,2.2838,0,2.2174,2.2258,2.2267,2.233,2.2363,2.2354,2.2422,2.2454,2.2519,2.2543,2.2522,2.2646,2.2679,2.2779,2.2806,2.2831,2.2852,2.2823,2.2942,2.2953,2.2963,2.3002,2.3017,2.284,2.284,2.284,2.284,0,2.2304,2.2363,2.2411,2.2472,2.251,2.2576,2.2596,2.2635,2.2637,2.2656,2.274,2.278,2.2843,2.2867,2.287,2.2969,2.2956,2.2938,2.2901,2.298,2.3017,2.3032,2.2844,2.2843,2.2843,2.2842,0,0,2.2419,2.2484,2.2502,2.253,2.2583,2.263,2.2696,2.2756,2.279,2.2835,2.2892,2.2976,2.296,2.2996,2.3003,2.3049,2.3135,2.3026,2.3028,2.3046,2.3247,2.3261,2.3278,2.313,2.3133,2.3135,2.3244,0,2.2519,2.2633,2.2643,2.2747,2.2802,2.2794,2.2852,2.2892,2.2912,2.2964,2.2987,2.3047,2.302,2.3042,2.3087,2.3115,2.3176,2.3107,2.3186,2.3188,2.3174,2.3297,2.3312,2.3412,2.3258,2.326,2.3262,0,2.2651,2.2698,2.2807,2.2853,2.2877,2.2928,2.2985,2.3034,2.308,2.3092,2.3132,2.3133,2.3203,2.3162,2.326,2.3213,2.3246,2.3264,2.3269,2.3278,2.3231,2.3311,2.3444,2.346,2.3284,2.3283,2.3281,0,2.2726,2.2817,2.2895,2.2919,2.2974,2.3011,2.3036,2.3079,2.3115,2.3166,2.319,2.3248,2.3281,2.3327,2.3345,2.3313,2.3443,2.3403,2.3456,2.3456,2.3485,2.3483,2.3627,2.3504,2.3504,2.3504,2.3503,0,2.2837,2.2905,2.2929,2.2977,2.3052,2.3064,2.3139,2.3163,2.3202,2.3255,2.3253,2.3304,2.3323,2.3378,2.3393,2.3473,2.3488,2.35,2.3504,2.3501,2.35,2.3524,2.3518,2.3508,2.3507,2.3506,2.3505,0,2.2934,2.2953,2.3037,2.3082,2.3096,2.315,2.319,2.3237,2.3256,2.3324,2.3341,2.3372,2.3436,2.3458,2.3537,2.3547,2.364,2.3637,2.3624,2.3625,2.3678,2.3673,2.3844,2.3868,2.3727,2.3729,2.373,0,2.3005,2.3056,2.3107,2.3141,2.3168,2.3224,2.326,2.3274,2.3313,2.337,2.3411,2.3474,2.3525,2.3629,2.366,2.3721,2.372,2.3775,2.3729,2.3725,2.3722,2.3719,2.3725,2.3784,2.3786,2.3787,2.3788,0,2.3128,2.3135,2.3186,2.3242,2.3285,2.333,2.3373,2.3402,2.3423,2.3467,2.3531,2.3571,2.3651,2.3715,2.3777,2.3805,2.3801,2.3802,2.3818,2.3817,2.3808,2.3815,2.3649,2.3798,2.3797,2.3797,2.3796,2.3796,2.3215,2.3261,2.3304,2.3362,2.3395,2.3436,2.3483,2.3507,2.3561,2.3626,2.3631,2.3701,2.3748,2.383,2.3861,2.3918,2.3903,2.3926,2.3932,2.3937,2.3942,2.3797,2.3929,2.3929,2.3929,2.3929,2.3929,0,2.3339,2.3366,2.342,2.348,2.3526,2.3516,2.3563,2.3603,2.3665,2.3707,2.3758,2.3833,2.3895,2.3931,2.3993,2.4032,2.4032,2.4048,2.4046,2.4053,2.3951,2.3932,2.4047,2.4047,2.4047,2.4047,2.4047,2.4047,2.341,2.3487,2.3499,2.3594,2.3621,2.3688,2.3717,2.3755,2.3789,2.3873,2.3923,2.3945,2.3986,2.4052,2.4109,2.4118,2.4142,2.416,2.4168,2.4072,2.406,2.4049,2.403,2.4164,2.4165,2.4265,2.4266,2.4266]},{"header":{"parameterUnit":"m.s-1","parameterCategory":1,"la1":30.2991,"la2":30.254,"lo1":-89.0895,"lo2":-89.0444,"dy":0.0017,"dx":0.0017,"nx":28,"ny":28,"refTime":"2023-07-20T21:00:00:Z","depth":0,"parameterNumber":3,"parameterNumberName":"V-component_of_WINDS"},"data":[0,0,0,0,0,0,0,0,0,0,0,0,0,0,0,0,0,0,0,0,0,0,0,0,0,0,0,0,0,0,0,0,0,0,0,0,0,0,0,0,0,0,0,0,0,0,0,0,0,0,0,0,0,0,0,0,0,0,2.1422,2.1423,0,2.1485,2.1486,2.1486,2.1499,2.1499,2.1498,2.1498,2.1559,2.1561,2.1563,0,0,0,0,0,0,0,0,0,0,0,0,0,2.1307,2.1309,2.1422,2.1423,2.1423,2.1485,2.1486,2.1486,2.1499,2.1499,2.1498,2.1498,2.1559,2.1561,2.1563,0,0,0,0,0,0,0,0,0,0,0,0,0,2.1362,2.131,2.1422,2.1437,2.1439,2.1485,2.1486,2.1487,2.1499,2.1499,2.1498,2.1497,2.1558,2.1561,2.1564,2.1597,0,0,2.1573,2.1575,0,0,0,0,0,0,0,0,2.1359,2.1366,2.1434,2.1436,2.1439,2.1484,2.1468,2.1524,2.15,2.1477,2.1498,2.1497,2.1534,2.1539,2.1553,2.16,2.1602,2.1574,2.1575,2.1577,2.1578,0,0,0,0,0,0,0,2.1355,2.1364,2.1447,2.1435,2.1438,2.1439,2.1446,2.1478,2.1508,2.1478,2.148,2.1487,2.1535,2.155,2.1554,2.1603,2.1573,2.1576,2.1578,2.1579,2.1677,2.1677,0,0,0,0,0,0,2.1349,2.1361,2.1445,2.1449,2.1397,2.1442,2.145,2.147,2.1508,2.1513,2.1488,2.1487,2.1545,2.1551,2.1556,2.1595,2.1577,2.158,2.1581,2.1676,2.1677,2.1678,0,0,0,0,0,0,2.1347,2.1357,2.1442,2.1405,2.1416,2.1445,2.1467,2.1471,2.1486,2.1515,2.152,2.1497,2.1544,2.1552,2.1586,2.1598,2.1581,2.1584,2.1675,2.1676,2.1677,2.1675,0,0,0,0,0,0,2.1344,2.1356,2.137,2.1405,2.1418,2.1473,2.1468,2.1473,2.1491,2.1492,2.1525,2.153,2.1544,2.1581,2.1589,2.1602,2.1586,2.1674,2.1676,2.1677,2.1674,2.1676,2.1677,0,0,0,0,0,2.1339,2.1367,2.1371,2.1381,2.1437,2.1473,2.148,2.1497,2.1492,2.1506,2.1524,2.1529,2.1595,2.1585,2.1594,2.1607,2.1674,2.1675,2.1677,2.1673,2.1676,2.1677,0,0,0,0,0,0,2.1333,2.1372,2.1377,2.1417,2.1442,2.1475,2.1494,2.1499,2.1525,2.1525,2.1543,2.1551,2.1583,2.1599,2.1586,2.1639,2.1634,2.1637,2.1628,2.163,2.1632,2.1627,2.1589,0,0,0,0,0,2.1336,2.1364,2.1396,2.1429,2.1441,2.1465,2.1481,2.1492,2.1518,2.1528,2.1549,2.1573,2.1599,2.1615,2.1641,2.1676,2.1682,2.169,2.1691,2.1692,2.1695,2.1711,2.1714,2.1683,2.1683,2.1683,0,0,2.1343,2.1368,2.1385,2.1428,2.1448,2.1474,2.1474,2.1502,2.1521,2.1532,2.1565,2.1581,2.1609,2.1643,2.1659,2.1657,2.1705,2.1694,2.1695,2.1697,2.1713,2.1716,2.1719,2.1684,2.1684,2.1684,0,0,2.137,2.1392,2.142,2.144,2.1471,2.1486,2.1492,2.1525,2.1535,2.1569,2.1577,2.1599,2.1644,2.1662,2.1677,2.1706,2.1711,2.1714,2.1722,2.1738,2.174,2.1743,2.1751,2.1754,2.1716,2.1716,2.1716,0,2.1374,2.1416,2.1434,2.1461,2.1478,2.1489,2.1516,2.1534,2.1571,2.1582,2.1579,2.1634,2.1653,2.169,2.1697,2.171,2.1716,2.171,2.1739,2.1741,2.1744,2.1752,2.1755,2.1717,2.1717,2.1717,2.1717,0,2.1418,2.1447,2.1465,2.1501,2.152,2.1547,2.1567,2.1584,2.1592,2.1607,2.1639,2.1662,2.1691,2.1701,2.1709,2.1738,2.1735,2.1736,2.173,2.1746,2.1754,2.1758,2.1717,2.1717,2.1717,2.1717,0,0,2.1444,2.1487,2.1493,2.1508,2.1541,2.1562,2.1588,2.1617,2.163,2.1654,2.1675,2.1711,2.1711,2.1728,2.1738,2.1752,2.177,2.175,2.1751,2.1752,2.18,2.1799,2.1803,2.1773,2.1774,2.1774,2.1797,0,2.1473,2.1521,2.1536,2.1576,2.16,2.1609,2.1631,2.1652,2.1666,2.1687,2.1702,2.1726,2.1725,2.1735,2.1749,2.1765,2.178,2.1764,2.1791,2.1792,2.1783,2.1807,2.1807,2.1828,2.1801,2.1801,2.1802,0,2.1513,2.1538,2.158,2.1607,2.1617,2.1637,2.1663,2.1684,2.1707,2.1716,2.1733,2.1742,2.1766,2.1759,2.1793,2.1781,2.1792,2.1801,2.1803,2.1805,2.1797,2.1809,2.1835,2.1837,2.1807,2.1807,2.1806,0,2.1525,2.1568,2.1598,2.1611,2.1644,2.1657,2.1671,2.1694,2.1709,2.1731,2.174,2.1765,2.1778,2.1795,2.1809,2.1803,2.184,2.1835,2.1846,2.1845,2.1853,2.1853,2.188,2.1862,2.1862,2.1862,2.1862,0,2.1555,2.1579,2.1604,2.1622,2.1649,2.1665,2.169,2.1704,2.1724,2.1743,2.1752,2.177,2.1787,2.1807,2.1817,2.1841,2.1848,2.1854,2.1856,2.1853,2.1852,2.186,2.1859,2.1863,2.1863,2.1863,2.1862,0,2.1572,2.159,2.1623,2.1651,2.1658,2.1676,2.1699,2.1716,2.1729,2.1753,2.176,2.178,2.1803,2.1818,2.1847,2.1854,2.188,2.1883,2.1873,2.1873,2.1883,2.1882,2.1917,2.1921,2.1901,2.1901,2.1901,0,2.159,2.1609,2.1638,2.1652,2.1666,2.1689,2.1704,2.172,2.1735,2.1761,2.1774,2.1797,2.1817,2.1853,2.1869,2.189,2.1893,2.1903,2.1896,2.1891,2.1891,2.189,2.1891,2.1905,2.1905,2.1905,2.1905,0,2.1618,2.1625,2.1648,2.1672,2.169,2.171,2.173,2.174,2.1759,2.1775,2.1798,2.1814,2.1843,2.1865,2.1888,2.19,2.1905,2.1907,2.191,2.1907,2.19,2.1902,2.1874,2.1906,2.1906,2.1906,2.1906,2.1906,2.1635,2.1652,2.1674,2.1698,2.1714,2.1732,2.1748,2.1763,2.1783,2.1809,2.1816,2.184,2.1859,2.189,2.1903,2.192,2.1919,2.1925,2.1926,2.1927,2.1926,2.1897,2.1925,2.1925,2.1925,2.1925,2.1925,0,2.1662,2.1677,2.1699,2.1726,2.1743,2.1747,2.1768,2.1782,2.1804,2.1822,2.1841,2.1866,2.1887,2.1904,2.1926,2.1936,2.1939,2.1941,2.194,2.1943,2.1927,2.1921,2.1939,2.1939,2.1939,2.1939,2.1939,2.1939,2.1679,2.1706,2.1715,2.1749,2.1763,2.1787,2.1799,2.1814,2.1828,2.1857,2.1875,2.1886,2.1903,2.1925,2.1943,2.1948,2.1954,2.1956,2.1961,2.1946,2.1944,2.1942,2.1937,2.1958,2.1958,2.1975,2.1975,2.1975]}]]